Location: Unspecified
(39.0670°S, 0.0000°E)
Time: 15:10:18
(UTC+00:00)

Envisat - Pass Details

Date: 26 June 2019
Orbit: 764 x 766 km, 98.1° (Epoch: 16 July)

Event Time Altitude Azimuth Distance (km) Brightness Sun altitude
Exits shadow 19:00:32 37° 24° (NNE) 1,198 3.8 -25.3°
Drops below altitude 10° 19:03:45 10° 3° (N) 2,307 5.5 -25.9°
Sets 19:06:05 0° 358° (N) 3,224 6.4 -26.3°
